Regional Weather Roundup
Issued by NWS Charleston, WV

Home | Current Version | Previous Version | Graphics & Text | Print | Product List | Glossary On
Versions: 1 2 3 4 5 6 7 8 9 10 11 12 13 14 15 16 17 18 19 20 21 22 23 24 25 26 27 28 29 30 31 32 33 34 35 36 37 38 39 40 41 42 43 44 45 46 47 48 49 50
000
ASUS41 KRLX 170510
RWRRLX
West Virginia Regional Weather Roundup
National Weather Service Charleston WV
1200 AM EST TUE JAN 17 2017

Note: "fair" indicates few or no clouds below 12,000 feet with no
significant weather and/or obstructions to visibility.

WVZ003-170600-
Northern Panhandle of West Virginia

CITY           SKY/WX    TMP DP  RH WIND       PRES   REMARKS
WHEELING       CLOUDY    40  37  89 S3        30.13F FOG
$$

WVZ009-170600-
Northwest West Virginia

CITY           SKY/WX    TMP DP  RH WIND       PRES   REMARKS
PARKERSBURG    LGT RAIN  46  45  96 CALM      30.16F FOG
$$

WVZ006-170600-
Western West Virginia

CITY           SKY/WX    TMP DP  RH WIND       PRES   REMARKS
HUNTINGTON     CLOUDY    50  48  93 CALM      30.10F FOG
$$

WVZ015-170600-
West Central West Virginia

CITY           SKY/WX    TMP DP  RH WIND       PRES   REMARKS
CHARLESTON     CLOUDY    50  49  96 E3        30.12F FOG
$$

WVZ022-031-170600-
North Central West Virginia

CITY           SKY/WX    TMP DP  RH WIND       PRES   REMARKS
CLARKSBURG     FOG       44  43  96 CALM      30.14F VSB 1/2
MORGANTOWN     CLOUDY    41  39  93 CALM      30.15F FOG
$$

WVZ025-035-042-045-170600-
Southern West Virginia

CITY           SKY/WX    TMP DP  RH WIND       PRES   REMARKS
BECKLEY        CLOUDY    51  46  83 SE7       30.17F
LOGAN          MOCLDY    59  50  72 S7        30.14F
BLUEFIELD      CLOUDY    48  44  86 CALM      30.20F
LEWISBURG      RAIN      45  45  99 CALM      30.21F VSB 1/4
$$

WVZ047-170600-
Northern Mountains of West Virginia

CITY           SKY/WX    TMP DP  RH WIND       PRES   REMARKS
ELKINS         FOG       45  42  89 CALM      30.18F VSB 1/4
$$

WVZ052-170600-
Eastern Panhandle of West Virginia

CITY           SKY/WX    TMP DP  RH WIND       PRES   REMARKS
MARTINSBURG    CLOUDY    37  31  78 NW3       30.25F
PETERSBURG     CLOUDY    39  37  90 CALM      30.24F
$$



USA.gov is the U.S. government's official web portal to all federal, state and local government web resources and services.